| time (UTC) | temp C | wind direction | speed KPH | gust KPH | rain 1hr cm | rain 24hr cm | rain mn cm | humidity % | barometer mb |
| 20260906053313 | 11 | 44 | 0.0 | 0.0 | 0.00 | 0.13 | 0.00 | 97 | 1028.3 |
| 20260906051814 | 10 | 44 | 0.0 | 0.0 | 0.00 | 0.13 | 0.00 | 96 | 1028.4 |
| 20260906050326 | 10 | 44 | 0.0 | 0.0 | 0.00 | 0.15 | 0.00 | 96 | 1028.4 |
| 20260906044810 | 10 | 44 | 0.0 | 0.0 | 0.00 | 0.15 | 0.00 | 96 | 1028.3 |
| 20260906043311 | 11 | 44 | 0.0 | 0.0 | 0.00 | 0.20 | 0.00 | 96 | 1028.2 |
| 20260906041811 | 11 | 44 | 0.0 | 0.0 | 0.00 | 0.43 | 0.00 | 97 | 1028.2 |
| 20260906040311 | 10 | 44 | 0.0 | 0.0 | 0.00 | 0.43 | 0.00 | 96 | 1028.1 |
| 20260906034812 | 10 | 44 | 0.0 | 0.0 | 0.00 | 0.43 | 0.00 | 96 | 1027.9 |
| 20260906033311 | 10 | 44 | 0.0 | 0.0 | 0.00 | 0.43 | 0.00 | 96 | 1027.9 |
| 20260906031812 | 11 | 44 | 0.0 | 0.0 | 0.00 | 0.43 | 0.00 | 96 | 1027.9 |
| 20260906030312 | 11 | 44 | 0.0 | 0.0 | 0.00 | 0.43 | 0.00 | 96 | 1027.8 |
| 20260906024812 | 11 | 44 | 0.0 | 0.0 | 0.00 | 0.43 | 0.00 | 96 | 1027.5 |
| 20260906023311 | 11 | 44 | 0.0 | 0.0 | 0.00 | 0.43 | 0.00 | 96 | 1027.6 |
| 20260906020314 | 12 | 44 | 0.0 | 0.0 | 0.00 | 0.43 | 0.00 | 96 | 1027.6 |
| 20260906014814 | 12 | 44 | 0.0 | 0.0 | 0.00 | 0.43 | 0.00 | 96 | 1027.6 |
| 20260906011810 | 12 | 44 | 0.0 | 0.0 | 0.00 | 0.43 | 0.00 | 96 | 1027.6 |
| 20260906010315 | 12 | 44 | 0.0 | 0.0 | 0.00 | 0.43 | 0.00 | 95 | 1027.6 |
| 20260906004816 | 12 | 44 | 0.0 | 0.0 | 0.00 | 0.43 | 0.00 | 95 | 1027.5 |
| 20260906003311 | 12 | 44 | 0.0 | 0.0 | 0.00 | 0.43 | 0.00 | 95 | 1027.5 |
| 20260906001811 | 12 | 44 | 0.0 | 0.0 | 0.00 | 0.43 | 0.00 | 94 | 1027.5 |
| 20260906000312 | 13 | 44 | 0.0 | 3.2 | 0.00 | 0.43 | 0.00 | 95 | 1027.5 |
| 20260905234813 | 12 | 19 | 0.0 | 4.8 | 0.00 | 0.43 | 0.00 | 94 | 1027.5 |
| 20260905233307 | 13 | 268 | 0.0 | 0.0 | 0.00 | 0.43 | 0.00 | 94 | 1027.2 |
| 20260905230310 | 13 | 268 | 0.0 | 0.0 | 0.00 | 0.43 | 0.00 | 94 | 1027.2 |
| 20260905224808 | 13 | 268 | 0.0 | 0.0 | 0.00 | 0.43 | 0.00 | 93 | 1027.2 |
| 20260905223309 | 13 | 268 | 0.0 | 0.0 | 0.00 | 0.43 | 0.00 | 92 | 1027.0 |
| 20260905220303 | 14 | 268 | 0.0 | 1.6 | 0.00 | 0.43 | 0.00 | 92 | 1027.1 |
| 20260905214809 | 15 | 268 | 0.0 | 1.6 | 0.00 | 0.43 | 0.43 | 92 | 1027.1 |
| 20260905213303 | 14 | 268 | 0.0 | 0.0 | 0.00 | 0.43 | 0.43 | 91 | 1026.9 |
| 20260905211805 | 15 | 268 | 0.0 | 1.6 | 0.00 | 0.43 | 0.43 | 91 | 1027.0 |
| 20260905210306 | 15 | 268 | 0.0 | 1.6 | 0.00 | 0.43 | 0.43 | 90 | 1026.8 |
| 20260905204804 | 15 | 268 | 0.0 | 0.0 | 0.00 | 0.43 | 0.43 | 89 | 1026.7 |
| 20260905203308 | 16 | 268 | 0.0 | 1.6 | 0.00 | 0.43 | 0.43 | 87 | 1026.7 |
| 20260905201801 | 16 | 268 | 0.0 | 3.2 | 0.00 | 0.43 | 0.43 | 85 | 1026.6 |
| 20260905200302 | 17 | 268 | 0.0 | 3.2 | 0.00 | 0.43 | 0.43 | 84 | 1026.4 |
| 20260905193302 | 17 | 269 | 0.0 | 6.4 | 0.00 | 0.43 | 0.43 | 82 | 1026.2 |
| 20260905191803 | 18 | 271 | 1.6 | 8.0 | 0.00 | 0.43 | 0.43 | 81 | 1026.0 |
| 20260905184803 | 19 | 306 | 1.6 | 9.7 | 0.00 | 0.43 | 0.43 | 82 | 1025.4 |
| 20260905183311 | 19 | 263 | 3.2 | 11.3 | 0.00 | 0.43 | 0.43 | 84 | 1025.2 |
| 20260905181802 | 20 | 231 | 1.6 | 8.0 | 0.00 | 0.43 | 0.43 | 84 | 1025.0 |
| 20260905180303 | 20 | 214 | 1.6 | 9.7 | 0.00 | 0.43 | 0.43 | 84 | 1024.8 |
| 20260905174801 | 20 | 267 | 3.2 | 9.7 | 0.00 | 0.43 | 0.43 | 83 | 1024.5 |
| 20260905173309 | 20 | 270 | 1.6 | 9.7 | 0.00 | 0.43 | 0.43 | 82 | 1024.4 |
| 20260905171802 | 21 | 219 | 3.2 | 12.9 | 0.00 | 0.43 | 0.43 | 79 | 1024.3 |
| 20260905170301 | 21 | 238 | 3.2 | 9.7 | 0.00 | 0.43 | 0.43 | 72 | 1024.3 |
| 20260905164801 | 22 | 248 | 3.2 | 11.3 | 0.00 | 0.43 | 0.43 | 71 | 1024.2 |
| 20260905163306 | 22 | 220 | 3.2 | 11.3 | 0.00 | 0.43 | 0.43 | 73 | 1024.2 |
| 20260905161803 | 22 | 193 | 4.8 | 12.9 | 0.00 | 0.43 | 0.43 | 72 | 1024.2 |
| 20260905160302 | 22 | 213 | 4.8 | 14.5 | 0.00 | 0.43 | 0.43 | 71 | 1024.2 |
| 20260905153301 | 22 | 265 | 3.2 | 14.5 | 0.00 | 0.43 | 0.43 | 70 | 1024.3 |
| 20260905151802 | 23 | 166 | 4.8 | 16.1 | 0.00 | 0.43 | 0.43 | 67 | 1024.2 |
| 20260905150301 | 23 | 309 | 4.8 | 16.1 | 0.00 | 0.43 | 0.43 | 65 | 1024.2 |
| 20260905144807 | 23 | 267 | 4.8 | 14.5 | 0.00 | 0.43 | 0.43 | 64 | 1024.2 |
| 20260905143301 | 22 | 236 | 4.8 | 12.9 | 0.00 | 0.43 | 0.43 | 66 | 1024.2 |
| 20260905141801 | 22 | 242 | 4.8 | 12.9 | 0.00 | 0.43 | 0.43 | 66 | 1024.2 |
| 20260905140301 | 22 | 213 | 4.8 | 12.9 | 0.00 | 0.43 | 0.43 | 64 | 1024.3 |
| 20260905134802 | 22 | 298 | 6.4 | 17.7 | 0.00 | 0.43 | 0.43 | 63 | 1024.5 |
| 20260905133755 | 22 | 213 | 4.8 | 16.1 | 0.00 | 0.43 | 0.43 | 68 | 1024.6 |
| 20260905133114 | 22 | 221 | 4.8 | 14.5 | 0.00 | 0.43 | 0.43 | 70 | 1024.8 |
| 20260905130308 | 21 | 216 | 4.8 | 16.1 | 0.00 | 0.43 | 0.43 | 72 | 1024.8 |
| 20260905124805 | 21 | 204 | 6.4 | 14.5 | 0.00 | 0.43 | 0.43 | 73 | 1024.8 |
| 20260905123303 | 20 | 313 | 6.4 | 17.7 | 0.00 | 0.43 | 0.43 | 77 | 1024.7 |
| 20260905121803 | 19 | 231 | 4.8 | 12.9 | 0.00 | 0.43 | 0.43 | 82 | 1024.8 |
| 20260905120302 | 18 | 329 | 4.8 | 14.5 | 0.00 | 0.43 | 0.43 | 83 | 1024.7 |
| 20260905114803 | 18 | 254 | 3.2 | 11.3 | 0.00 | 0.43 | 0.43 | 84 | 1024.7 |
| 20260905113304 | 18 | 264 | 3.2 | 11.3 | 0.00 | 0.43 | 0.43 | 85 | 1024.7 |
| 20260905111803 | 18 | 229 | 3.2 | 9.7 | 0.00 | 0.43 | 0.43 | 85 | 1024.8 |
| 20260905110304 | 18 | 194 | 3.2 | 12.9 | 0.00 | 0.43 | 0.43 | 88 | 1024.4 |
| 20260905104803 | 17 | 119 | 3.2 | 9.7 | 0.00 | 0.43 | 0.43 | 89 | 1024.5 |
| 20260905101804 | 16 | 218 | 1.6 | 6.4 | 0.03 | 0.43 | 0.43 | 90 | 1024.5 |
| 20260905100304 | 16 | 161 | 1.6 | 6.4 | 0.03 | 0.43 | 0.43 | 90 | 1024.6 |
| 20260905094804 | 16 | 159 | 0.0 | 4.8 | 0.03 | 0.43 | 0.43 | 90 | 1024.3 |
| 20260905090304 | 16 | 248 | 1.6 | 6.4 | 0.00 | 0.41 | 0.41 | 88 | 1024.2 |
| 20260905084801 | 16 | 229 | 1.6 | 3.2 | 0.00 | 0.41 | 0.41 | 88 | 1024.1 |
| 20260905083302 | 16 | 259 | 0.0 | 3.2 | 0.00 | 0.41 | 0.41 | 89 | 1024.1 |
| 20260905081804 | 16 | 226 | 0.0 | 3.2 | 0.00 | 0.41 | 0.41 | 88 | 1024.2 |
| 20260905080303 | 16 | 226 | 0.0 | 3.2 | 0.00 | 0.41 | 0.41 | 89 | 1024.1 |
| 20260905074803 | 16 | 226 | 0.0 | 1.6 | 0.00 | 0.41 | 0.41 | 91 | 1024.1 |
| 20260905073302 | 16 | 226 | 1.6 | 3.2 | 0.00 | 0.41 | 0.41 | 92 | 1023.9 |
| 20260905070305 | 15 | 255 | 0.0 | 1.6 | 0.03 | 0.41 | 0.41 | 93 | 1023.9 |
| 20260905064803 | 15 | 255 | 0.0 | 4.8 | 0.10 | 0.41 | 0.41 | 93 | 1023.9 |
| 20260905063305 | 15 | 157 | 1.6 | 4.8 | 0.10 | 0.41 | 0.41 | 92 | 1023.3 |
| 20260905061803 | 15 | 200 | 0.0 | 4.8 | 0.10 | 0.41 | 0.41 | 92 | 1023.0 |
| 20260905054811 | 15 | 59 | 0.0 | 1.6 | 0.03 | 0.30 | 0.30 | 91 | 1023.1 |